| time (UTC) | temp F | wind direction | speed knots | gust knots | rain 1hr in | rain 24hr in | rain mn in | humidity % | barometer mb |
| 20260903163106 | 69 | 0 | 0.9 | 3.5 | 0.00 | 0.00 | 0.00 | 77 | 1013.7 |
| 20260903162556 | 69 | 111 | 0.0 | 2.6 | 0.00 | 0.00 | 0.00 | 78 | 1013.6 |
| 20260903162056 | 69 | 0 | 0.0 | 1.7 | 0.00 | 0.00 | 0.00 | 79 | 1013.6 |
| 20260903161614 | 69 | 230 | 0.0 | 6.1 | 0.00 | 0.00 | 0.00 | 79 | 1013.6 |
| 20260903161056 | 69 | 0 | 0.9 | 6.1 | 0.00 | 0.00 | 0.00 | 79 | 1013.6 |
| 20260903160556 | 69 | 191 | 0.9 | 6.1 | 0.00 | 0.00 | 0.00 | 79 | 1013.5 |
| 20260903160106 | 69 | 167 | 0.9 | 3.5 | 0.00 | 0.00 | 0.00 | 79 | 1013.6 |
| 20260903155556 | 68 | 0 | 0.0 | 3.5 | 0.00 | 0.00 | 0.00 | 80 | 1013.6 |
| 20260903155057 | 68 | 72 | 0.9 | 5.2 | 0.00 | 0.00 | 0.00 | 80 | 1013.6 |
| 20260903154606 | 69 | 65 | 0.9 | 5.2 | 0.00 | 0.00 | 0.00 | 80 | 1013.6 |
| 20260903154056 | 69 | 65 | 1.7 | 5.2 | 0.00 | 0.00 | 0.00 | 79 | 1013.7 |
| 20260903153556 | 69 | 115 | 0.9 | 4.3 | 0.00 | 0.00 | 0.00 | 79 | 1013.7 |
| 20260903153106 | 69 | 98 | 0.9 | 4.3 | 0.00 | 0.00 | 0.00 | 79 | 1013.6 |
| 20260903152557 | 69 | 190 | 0.0 | 2.6 | 0.00 | 0.00 | 0.00 | 80 | 1013.5 |
| 20260903152058 | 69 | 83 | 0.0 | 2.6 | 0.00 | 0.00 | 0.00 | 80 | 1013.6 |
| 20260903151612 | 68 | 102 | 0.0 | 1.7 | 0.00 | 0.00 | 0.00 | 81 | 1013.5 |
| 20260903151057 | 68 | 194 | 0.0 | 1.7 | 0.00 | 0.00 | 0.00 | 82 | 1013.5 |
| 20260903150557 | 68 | 5 | 0.0 | 1.7 | 0.00 | 0.00 | 0.00 | 83 | 1013.4 |
| 20260903150058 | 67 | 0 | 0.0 | 0.0 | 0.00 | 0.00 | 0.00 | 83 | 1013.5 |
| 20260903145557 | 67 | 0 | 0.0 | 0.0 | 0.00 | 0.00 | 0.00 | 84 | 1013.4 |
| 20260903145057 | 66 | 0 | 0.0 | 2.6 | 0.00 | 0.00 | 0.00 | 85 | 1013.4 |
| 20260903144607 | 66 | 0 | 0.0 | 2.6 | 0.00 | 0.00 | 0.00 | 85 | 1013.5 |
| 20260903144057 | 66 | 0 | 0.0 | 1.7 | 0.00 | 0.00 | 0.00 | 86 | 1013.4 |
| 20260903143557 | 66 | 0 | 0.0 | 1.7 | 0.00 | 0.00 | 0.00 | 87 | 1013.3 |
| 20260903143101 | 66 | 0 | 0.0 | 2.6 | 0.00 | 0.00 | 0.00 | 87 | 1013.2 |
| 20260903142556 | 66 | 59 | 0.9 | 2.6 | 0.00 | 0.00 | 0.00 | 87 | 1013.2 |
| 20260903142055 | 66 | 0 | 0.0 | 0.0 | 0.00 | 0.00 | 0.00 | 88 | 1013.2 |
| 20260903141605 | 66 | 0 | 0.0 | 0.0 | 0.00 | 0.00 | 0.00 | 88 | 1013.2 |
| 20260903141056 | 66 | 0 | 0.0 | 0.0 | 0.00 | 0.00 | 0.00 | 88 | 1013.2 |
| 20260903140555 | 66 | 0 | 0.0 | 0.9 | 0.00 | 0.00 | 0.00 | 88 | 1013.1 |
| 20260903135557 | 66 | 0 | 0.0 | 0.9 | 0.00 | 0.00 | 0.00 | 88 | 1013.0 |
| 20260903135057 | 65 | 0 | 0.0 | 1.7 | 0.00 | 0.00 | 0.00 | 88 | 1013.0 |
| 20260903134606 | 65 | 0 | 0.0 | 1.7 | 0.00 | 0.00 | 0.00 | 88 | 1012.9 |
| 20260903134054 | 65 | 0 | 0.0 | 1.7 | 0.00 | 0.00 | 0.00 | 88 | 1013.0 |
| 20260903133552 | 65 | 0 | 0.0 | 1.7 | 0.00 | 0.00 | 0.00 | 88 | 1013.0 |
| 20260903133103 | 65 | 0 | 0.0 | 1.7 | 0.00 | 0.00 | 0.00 | 88 | 1013.0 |
| 20260903132551 | 65 | 0 | 0.0 | 1.7 | 0.00 | 0.00 | 0.00 | 88 | 1013.0 |
| 20260903132051 | 65 | 0 | 0.0 | 2.6 | 0.00 | 0.00 | 0.00 | 87 | 1013.0 |
| 20260903131604 | 65 | 0 | 0.0 | 2.6 | 0.00 | 0.00 | 0.00 | 87 | 1012.9 |
| 20260903131050 | 65 | 62 | 0.0 | 1.7 | 0.00 | 0.00 | 0.00 | 87 | 1012.9 |
| 20260903130552 | 65 | 0 | 0.0 | 2.6 | 0.00 | 0.00 | 0.00 | 87 | 1013.0 |
| 20260903130109 | 65 | 52 | 0.0 | 2.6 | 0.00 | 0.00 | 0.00 | 87 | 1013.0 |
| 20260903125552 | 65 | 41 | 0.0 | 3.5 | 0.00 | 0.00 | 0.00 | 87 | 1012.9 |
| 20260903125054 | 65 | 0 | 0.9 | 3.5 | 0.00 | 0.00 | 0.00 | 87 | 1013.0 |
| 20260903124605 | 65 | 69 | 0.9 | 3.5 | 0.00 | 0.00 | 0.00 | 86 | 1013.0 |
| 20260903124055 | 65 | 90 | 0.9 | 2.6 | 0.00 | 0.00 | 0.00 | 86 | 1012.9 |
| 20260903123554 | 65 | 0 | 0.9 | 2.6 | 0.00 | 0.00 | 0.00 | 86 | 1012.9 |
| 20260903123107 | 65 | 63 | 0.9 | 2.6 | 0.00 | 0.00 | 0.00 | 86 | 1012.9 |
| 20260903122551 | 65 | 0 | 0.0 | 1.7 | 0.00 | 0.00 | 0.00 | 86 | 1012.9 |
| 20260903122051 | 65 | 0 | 0.0 | 0.0 | 0.00 | 0.00 | 0.00 | 86 | 1012.8 |
| 20260903121602 | 65 | 0 | 0.0 | 0.9 | 0.00 | 0.00 | 0.00 | 86 | 1012.9 |
| 20260903121051 | 64 | 0 | 0.0 | 2.6 | 0.00 | 0.00 | 0.00 | 86 | 1012.9 |
| 20260903120555 | 64 | 0 | 0.0 | 2.6 | 0.00 | 0.00 | 0.00 | 86 | 1012.9 |
| 20260903120056 | 64 | 56 | 0.0 | 2.6 | 0.00 | 0.00 | 0.00 | 86 | 1013.0 |
| 20260903115554 | 64 | 0 | 0.0 | 2.6 | 0.00 | 0.00 | 0.00 | 86 | 1012.9 |
| 20260903115054 | 64 | 71 | 0.0 | 0.0 | 0.00 | 0.00 | 0.00 | 87 | 1013.1 |
| 20260903114557 | 64 | 0 | 0.0 | 1.7 | 0.00 | 0.00 | 0.00 | 86 | 1013.0 |
| 20260903114051 | 64 | 0 | 0.0 | 1.7 | 0.00 | 0.00 | 0.00 | 86 | 1013.0 |
| 20260903113554 | 64 | 0 | 0.0 | 1.7 | 0.00 | 0.00 | 0.00 | 86 | 1013.1 |
| 20260903113103 | 64 | 0 | 0.0 | 2.6 | 0.00 | 0.00 | 0.00 | 86 | 1013.1 |
| 20260903112554 | 64 | 0 | 0.0 | 2.6 | 0.00 | 0.00 | 0.00 | 86 | 1013.1 |
| 20260903112051 | 64 | 0 | 0.0 | 0.9 | 0.00 | 0.00 | 0.00 | 86 | 1013.2 |
| 20260903111601 | 64 | 0 | 0.0 | 1.7 | 0.00 | 0.00 | 0.00 | 86 | 1013.1 |
| 20260903111051 | 64 | 0 | 0.0 | 1.7 | 0.00 | 0.00 | 0.00 | 86 | 1013.1 |
| 20260903110551 | 64 | 0 | 0.0 | 1.7 | 0.00 | 0.00 | 0.00 | 86 | 1013.1 |
| 20260903110106 | 64 | 0 | 0.9 | 1.7 | 0.00 | 0.00 | 0.00 | 86 | 1013.2 |
| 20260903105557 | 64 | 0 | 0.0 | 0.0 | 0.00 | 0.00 | 0.00 | 85 | 1013.2 |
| 20260903105055 | 64 | 0 | 0.0 | 0.0 | 0.00 | 0.00 | 0.00 | 85 | 1013.1 |
| 20260903104603 | 64 | 0 | 0.0 | 1.7 | 0.00 | 0.00 | 0.00 | 85 | 1013.2 |
| 20260903104051 | 64 | 0 | 0.0 | 2.6 | 0.00 | 0.00 | 0.00 | 85 | 1013.1 |
| 20260903103551 | 64 | 0 | 0.0 | 2.6 | 0.00 | 0.00 | 0.00 | 85 | 1013.2 |
| 20260903103105 | 64 | 29 | 0.0 | 1.7 | 0.00 | 0.00 | 0.00 | 85 | 1013.1 |
| 20260903102552 | 64 | 41 | 0.0 | 1.7 | 0.00 | 0.00 | 0.00 | 85 | 1013.2 |
| 20260903102054 | 64 | 41 | 0.0 | 2.6 | 0.00 | 0.00 | 0.00 | 85 | 1013.2 |
| 20260903101558 | 64 | 0 | 0.0 | 2.6 | 0.00 | 0.00 | 0.00 | 85 | 1013.2 |
| 20260903101051 | 64 | 0 | 0.0 | 2.6 | 0.00 | 0.00 | 0.00 | 84 | 1013.2 |
| 20260903100556 | 64 | 0 | 0.0 | 2.6 | 0.00 | 0.00 | 0.00 | 84 | 1013.1 |
| 20260903100058 | 64 | 0 | 0.0 | 2.6 | 0.00 | 0.00 | 0.00 | 84 | 1013.2 |
| 20260903095554 | 64 | 0 | 0.0 | 2.6 | 0.00 | 0.00 | 0.00 | 83 | 1013.1 |
| 20260903095054 | 64 | 0 | 0.0 | 2.6 | 0.00 | 0.00 | 0.00 | 83 | 1013.2 |
| 20260903094607 | 64 | 18 | 0.0 | 3.5 | 0.00 | 0.00 | 0.00 | 83 | 1013.2 |
| 20260903094054 | 64 | 0 | 0.0 | 3.5 | 0.00 | 0.00 | 0.00 | 83 | 1013.3 |
| 20260903093552 | 64 | 40 | 0.0 | 2.6 | 0.00 | 0.00 | 0.00 | 83 | 1013.3 |
| 20260903093104 | 65 | 0 | 0.0 | 1.7 | 0.00 | 0.00 | 0.00 | 83 | 1013.3 |
| 20260903092551 | 65 | 13 | 0.0 | 1.7 | 0.00 | 0.00 | 0.00 | 82 | 1013.3 |
| 20260903092051 | 65 | 0 | 0.0 | 2.6 | 0.00 | 0.00 | 0.00 | 82 | 1013.4 |
| 20260903091606 | 65 | 0 | 0.0 | 2.6 | 0.00 | 0.00 | 0.00 | 82 | 1013.5 |
| 20260903091054 | 65 | 0 | 0.0 | 2.6 | 0.00 | 0.00 | 0.00 | 82 | 1013.5 |
| 20260903090555 | 65 | 24 | 0.0 | 2.6 | 0.00 | 0.00 | 0.00 | 82 | 1013.6 |
| 20260903090059 | 65 | 31 | 0.9 | 3.5 | 0.00 | 0.00 | 0.00 | 81 | 1013.5 |
| 20260903085554 | 65 | 36 | 0.0 | 3.5 | 0.00 | 0.00 | 0.00 | 81 | 1013.5 |
| 20260903085054 | 65 | 15 | 0.9 | 3.5 | 0.00 | 0.00 | 0.00 | 81 | 1013.6 |
| 20260903084559 | 65 | 0 | 0.0 | 0.0 | 0.00 | 0.00 | 0.00 | 81 | 1013.6 |
| 20260903084054 | 65 | 0 | 0.0 | 0.0 | 0.00 | 0.00 | 0.00 | 81 | 1013.7 |
| 20260903083554 | 65 | 0 | 0.0 | 0.0 | 0.00 | 0.00 | 0.00 | 80 | 1013.7 |
| 20260903083103 | 65 | 0 | 0.0 | 0.0 | 0.00 | 0.00 | 0.00 | 80 | 1013.7 |
| 20260903082554 | 65 | 0 | 0.0 | 0.0 | 0.00 | 0.00 | 0.00 | 80 | 1013.7 |
| 20260903082054 | 65 | 0 | 0.0 | 0.0 | 0.00 | 0.00 | 0.00 | 79 | 1013.8 |
| 20260903081556 | 65 | 0 | 0.0 | 0.0 | 0.00 | 0.00 | 0.00 | 79 | 1013.8 |
| 20260903081051 | 65 | 0 | 0.0 | 0.0 | 0.00 | 0.00 | 0.00 | 79 | 1013.9 |
| 20260903080555 | 65 | 0 | 0.0 | 0.0 | 0.00 | 0.00 | 0.00 | 78 | 1013.9 |
| 20260903080106 | 65 | 0 | 0.0 | 0.0 | 0.00 | 0.00 | 0.00 | 78 | 1013.9 |
| 20260903075555 | 65 | 0 | 0.0 | 1.7 | 0.00 | 0.00 | 0.00 | 78 | 1013.9 |
| 20260903075055 | 65 | 0 | 0.0 | 1.7 | 0.00 | 0.00 | 0.00 | 78 | 1013.9 |
| 20260903074559 | 66 | 0 | 0.0 | 1.7 | 0.00 | 0.00 | 0.00 | 78 | 1013.9 |
| 20260903074054 | 66 | 0 | 0.0 | 1.7 | 0.00 | 0.00 | 0.00 | 78 | 1013.8 |
| 20260903073554 | 66 | 0 | 0.0 | 0.0 | 0.00 | 0.00 | 0.00 | 78 | 1013.9 |
| 20260903073113 | 65 | 0 | 0.0 | 0.0 | 0.00 | 0.00 | 0.00 | 78 | 1013.8 |
| 20260903072554 | 65 | 0 | 0.0 | 0.0 | 0.00 | 0.00 | 0.00 | 77 | 1013.8 |
| 20260903072051 | 65 | 0 | 0.0 | 0.0 | 0.00 | 0.00 | 0.00 | 76 | 1013.8 |
| 20260903071602 | 65 | 0 | 0.0 | 0.0 | 0.00 | 0.00 | 0.00 | 76 | 1013.8 |
| 20260903071059 | 65 | 0 | 0.0 | 0.0 | 0.00 | 0.00 | 0.00 | 75 | 1013.8 |
| 20260903070600 | 65 | 0 | 0.0 | 0.0 | 0.00 | 0.00 | 0.00 | 75 | 1013.9 |
| 20260903070107 | 65 | 0 | 0.0 | 0.0 | 0.00 | 0.00 | 0.00 | 75 | 1013.9 |
| 20260903065557 | 65 | 0 | 0.0 | 0.0 | 0.00 | 0.00 | 0.00 | 75 | 1013.8 |
| 20260903065056 | 65 | 0 | 0.0 | 0.0 | 0.00 | 0.00 | 0.00 | 75 | 1013.8 |
| 20260903064606 | 65 | 0 | 0.0 | 0.0 | 0.00 | 0.00 | 0.00 | 74 | 1013.8 |
| 20260903064056 | 65 | 0 | 0.0 | 0.0 | 0.00 | 0.00 | 0.00 | 74 | 1013.7 |
| 20260903063556 | 65 | 0 | 0.0 | 0.0 | 0.00 | 0.00 | 0.00 | 74 | 1013.7 |
| 20260903063126 | 65 | 0 | 0.0 | 0.0 | 0.00 | 0.00 | 0.00 | 74 | 1013.7 |
| 20260903062557 | 65 | 0 | 0.0 | 0.0 | 0.00 | 0.00 | 0.00 | 73 | 1013.7 |
| 20260903062056 | 65 | 0 | 0.0 | 0.0 | 0.00 | 0.00 | 0.00 | 73 | 1013.7 |
| 20260903061559 | 65 | 0 | 0.0 | 0.0 | 0.00 | 0.00 | 0.00 | 73 | 1013.7 |
| 20260903061058 | 65 | 0 | 0.0 | 0.0 | 0.00 | 0.00 | 0.00 | 73 | 1013.7 |
| 20260903060557 | 65 | 0 | 0.0 | 0.0 | 0.00 | 0.00 | 0.00 | 73 | 1013.6 |
| 20260903060109 | 66 | 0 | 0.0 | 0.0 | 0.00 | 0.00 | 0.00 | 73 | 1013.5 |
| 20260903055557 | 66 | 0 | 0.0 | 0.0 | 0.00 | 0.00 | 0.00 | 73 | 1013.6 |
| 20260903055056 | 66 | 0 | 0.0 | 0.0 | 0.00 | 0.00 | 0.00 | 73 | 1013.5 |
| 20260903054607 | 66 | 0 | 0.0 | 0.0 | 0.00 | 0.00 | 0.00 | 73 | 1013.5 |
| 20260903054056 | 66 | 0 | 0.0 | 0.0 | 0.00 | 0.00 | 0.00 | 73 | 1013.4 |
| 20260903053556 | 67 | 0 | 0.0 | 0.0 | 0.00 | 0.00 | 0.00 | 73 | 1013.4 |
| 20260903053104 | 67 | 0 | 0.0 | 2.6 | 0.00 | 0.00 | 0.00 | 73 | 1013.5 |
| 20260903052556 | 67 | 0 | 0.0 | 2.6 | 0.00 | 0.00 | 0.00 | 73 | 1013.6 |
| 20260903052059 | 67 | 49 | 0.0 | 1.7 | 0.00 | 0.00 | 0.00 | 73 | 1013.5 |
| 20260903051600 | 67 | 0 | 0.0 | 1.7 | 0.00 | 0.00 | 0.00 | 73 | 1013.5 |
| 20260903051056 | 67 | 0 | 0.0 | 2.6 | 0.00 | 0.00 | 0.00 | 73 | 1013.5 |
| 20260903050558 | 67 | 39 | 0.0 | 4.3 | 0.00 | 0.00 | 0.00 | 73 | 1013.4 |
| 20260903050059 | 67 | 38 | 0.0 | 4.3 | 0.00 | 0.00 | 0.00 | 73 | 1013.4 |
| 20260903045557 | 67 | 38 | 0.0 | 2.6 | 0.00 | 0.00 | 0.00 | 73 | 1013.4 |
| 20260903045058 | 67 | 24 | 0.9 | 3.5 | 0.00 | 0.00 | 0.00 | 73 | 1013.3 |
| 20260903044605 | 67 | 0 | 0.0 | 3.5 | 0.00 | 0.00 | 0.00 | 73 | 1013.2 |
| 20260903044056 | 67 | 28 | 0.9 | 2.6 | 0.00 | 0.00 | 0.00 | 73 | 1013.3 |
| 20260903043555 | 67 | 0 | 0.0 | 2.6 | 0.00 | 0.00 | 0.00 | 73 | 1013.4 |
| 20260903043108 | 67 | 61 | 0.0 | 3.5 | 0.00 | 0.00 | 0.00 | 73 | 1013.3 |
| 20260903042557 | 67 | 13 | 0.9 | 3.5 | 0.00 | 0.00 | 0.00 | 73 | 1013.3 |
| 20260903042059 | 68 | 23 | 0.9 | 3.5 | 0.00 | 0.00 | 0.00 | 73 | 1013.3 |
| 20260903041600 | 68 | 28 | 0.0 | 2.6 | 0.00 | 0.00 | 0.00 | 73 | 1013.4 |
| 20260903041056 | 68 | 22 | 0.9 | 2.6 | 0.00 | 0.00 | 0.00 | 73 | 1013.4 |
| 20260903040559 | 68 | 5 | 0.9 | 2.6 | 0.00 | 0.00 | 0.00 | 73 | 1013.4 |
| 20260903040055 | 68 | 30 | 0.0 | 3.5 | 0.00 | 0.00 | 0.00 | 73 | 1013.3 |
| 20260903035555 | 68 | 33 | 0.0 | 3.5 | 0.00 | 0.00 | 0.00 | 73 | 1013.3 |
| 20260903035054 | 68 | 29 | 0.9 | 3.5 | 0.00 | 0.00 | 0.00 | 72 | 1013.3 |
| 20260903034600 | 68 | 35 | 0.9 | 2.6 | 0.00 | 0.00 | 0.00 | 72 | 1013.3 |
| 20260903034050 | 68 | 34 | 0.0 | 2.6 | 0.00 | 0.00 | 0.00 | 72 | 1013.2 |
| 20260903033553 | 68 | 5 | 0.0 | 2.6 | 0.00 | 0.00 | 0.00 | 72 | 1013.2 |
| 20260903033103 | 68 | 30 | 0.0 | 2.6 | 0.00 | 0.00 | 0.00 | 72 | 1013.2 |
| 20260903032555 | 68 | 0 | 0.0 | 2.6 | 0.00 | 0.00 | 0.00 | 72 | 1013.0 |
| 20260903032056 | 69 | 0 | 0.0 | 1.7 | 0.00 | 0.00 | 0.00 | 72 | 1013.2 |
| 20260903031602 | 69 | 30 | 0.9 | 1.7 | 0.00 | 0.00 | 0.00 | 71 | 1013.1 |
| 20260903031056 | 69 | 29 | 0.0 | 1.7 | 0.00 | 0.00 | 0.00 | 71 | 1013.1 |
| 20260903030555 | 69 | 26 | 0.0 | 1.7 | 0.00 | 0.00 | 0.00 | 71 | 1013.0 |
| 20260903030107 | 69 | 0 | 0.0 | 2.6 | 0.00 | 0.00 | 0.00 | 70 | 1013.0 |
| 20260903025554 | 69 | 0 | 0.0 | 2.6 | 0.00 | 0.00 | 0.00 | 70 | 1013.0 |
| 20260903025054 | 69 | 74 | 0.9 | 2.6 | 0.00 | 0.00 | 0.00 | 69 | 1012.9 |
| 20260903024557 | 70 | 0 | 0.0 | 2.6 | 0.00 | 0.00 | 0.00 | 69 | 1012.9 |
| 20260903024054 | 70 | 0 | 0.9 | 2.6 | 0.00 | 0.00 | 0.00 | 69 | 1012.9 |
| 20260903023550 | 70 | 63 | 0.9 | 3.5 | 0.00 | 0.00 | 0.00 | 68 | 1013.0 |
| 20260903023101 | 70 | 63 | 1.7 | 3.5 | 0.00 | 0.00 | 0.00 | 68 | 1013.0 |
| 20260903022554 | 71 | 69 | 0.9 | 2.6 | 0.00 | 0.00 | 0.00 | 67 | 1013.0 |
| 20260903022054 | 71 | 70 | 0.9 | 1.7 | 0.00 | 0.00 | 0.00 | 67 | 1013.0 |
| 20260903021557 | 71 | 58 | 0.0 | 0.9 | 0.00 | 0.00 | 0.00 | 66 | 1013.0 |
| 20260903021054 | 71 | 0 | 0.0 | 2.6 | 0.00 | 0.00 | 0.00 | 66 | 1013.0 |
| 20260903020554 | 71 | 0 | 0.0 | 2.6 | 0.00 | 0.00 | 0.00 | 66 | 1013.0 |
| 20260903015554 | 71 | 259 | 0.0 | 4.3 | 0.00 | 0.00 | 0.00 | 66 | 1013.0 |
| 20260903015054 | 71 | 233 | 0.9 | 7.0 | 0.00 | 0.00 | 0.00 | 69 | 1013.1 |
| 20260903014602 | 71 | 209 | 2.6 | 7.0 | 0.00 | 0.00 | 0.00 | 69 | 1013.0 |
| 20260903014051 | 71 | 142 | 3.5 | 7.0 | 0.00 | 0.00 | 0.00 | 69 | 1013.1 |
| 20260903013554 | 71 | 162 | 4.3 | 7.0 | 0.00 | 0.00 | 0.00 | 68 | 1013.0 |
| 20260903013105 | 72 | 0 | 2.6 | 7.0 | 0.00 | 0.00 | 0.00 | 69 | 1013.0 |
| 20260903012556 | 72 | 193 | 1.7 | 7.8 | 0.00 | 0.00 | 0.00 | 69 | 1013.0 |
| 20260903012054 | 72 | 258 | 2.6 | 7.8 | 0.00 | 0.00 | 0.00 | 68 | 1013.0 |
| 20260903011611 | 72 | 157 | 3.5 | 7.8 | 0.00 | 0.00 | 0.00 | 68 | 1013.0 |
| 20260903011055 | 72 | 149 | 2.6 | 7.8 | 0.00 | 0.00 | 0.00 | 68 | 1013.1 |
| 20260903010554 | 72 | 254 | 4.3 | 8.7 | 0.00 | 0.00 | 0.00 | 68 | 1013.1 |
| 20260903010142 | 72 | 297 | 6.1 | 10.4 | 0.00 | 0.00 | 0.00 | 66 | 1013.1 |
| 20260903005554 | 72 | 269 | 5.2 | 11.3 | 0.00 | 0.00 | 0.00 | 68 | 1013.1 |
| 20260903005055 | 73 | 280 | 3.5 | 11.3 | 0.00 | 0.00 | 0.00 | 69 | 1013.0 |
| 20260903004614 | 73 | 265 | 7.0 | 11.3 | 0.00 | 0.00 | 0.00 | 67 | 1013.0 |
| 20260903004051 | 73 | 169 | 1.7 | 8.7 | 0.00 | 0.00 | 0.00 | 68 | 1013.0 |
| 20260903003555 | 73 | 275 | 4.3 | 8.7 | 0.00 | 0.00 | 0.00 | 68 | 1013.2 |
| 20260903003100 | 73 | 289 | 3.5 | 9.6 | 0.00 | 0.00 | 0.00 | 68 | 1013.1 |
| 20260903002554 | 73 | 238 | 3.5 | 9.6 | 0.00 | 0.00 | 0.00 | 68 | 1013.2 |
| 20260903002055 | 74 | 245 | 4.3 | 8.7 | 0.00 | 0.00 | 0.00 | 66 | 1013.2 |
| 20260903001556 | 73 | 151 | 2.6 | 10.4 | 0.00 | 0.00 | 0.00 | 65 | 1013.1 |
| 20260903001051 | 73 | 261 | 5.2 | 12.2 | 0.00 | 0.00 | 0.00 | 65 | 1013.1 |
| 20260903000554 | 73 | 276 | 7.0 | 12.2 | 0.00 | 0.00 | 0.00 | 65 | 1013.2 |
| 20260903000056 | 74 | 263 | 4.3 | 11.3 | 0.00 | 0.00 | 0.00 | 65 | 1013.2 |
| 20260902235552 | 74 | 43 | 5.2 | 11.3 | 0.00 | 0.00 | 0.00 | 65 | 1013.3 |
| 20260902235051 | 73 | 214 | 4.3 | 7.8 | 0.00 | 0.00 | 0.00 | 64 | 1013.2 |
| 20260902234555 | 73 | 229 | 3.5 | 13.0 | 0.00 | 0.00 | 0.00 | 65 | 1013.3 |
| 20260902234051 | 73 | 125 | 5.2 | 13.0 | 0.00 | 0.00 | 0.00 | 65 | 1013.3 |
| 20260902233555 | 73 | 172 | 4.3 | 10.4 | 0.00 | 0.00 | 0.00 | 65 | 1013.3 |
| 20260902233104 | 74 | 240 | 6.1 | 10.4 | 0.00 | 0.00 | 0.00 | 66 | 1013.3 |
| 20260902232555 | 74 | 309 | 3.5 | 10.4 | 0.00 | 0.00 | 0.00 | 68 | 1013.3 |
| 20260902232054 | 74 | 259 | 3.5 | 12.2 | 0.00 | 0.00 | 0.00 | 68 | 1013.1 |
| 20260902231602 | 74 | 225 | 6.1 | 12.2 | 0.00 | 0.00 | 0.00 | 68 | 1013.1 |
| 20260902231055 | 74 | 219 | 2.6 | 11.3 | 0.00 | 0.00 | 0.00 | 67 | 1013.2 |
| 20260902230554 | 73 | 242 | 6.1 | 11.3 | 0.00 | 0.00 | 0.00 | 66 | 1013.3 |
| 20260902230105 | 74 | 212 | 6.1 | 10.4 | 0.00 | 0.00 | 0.00 | 66 | 1013.3 |
| 20260902225551 | 74 | 172 | 5.2 | 10.4 | 0.00 | 0.00 | 0.00 | 66 | 1013.4 |
| 20260902225053 | 74 | 307 | 3.5 | 9.6 | 0.00 | 0.00 | 0.00 | 67 | 1013.3 |
| 20260902224557 | 74 | 267 | 4.3 | 9.6 | 0.00 | 0.00 | 0.00 | 66 | 1013.4 |
| 20260902224054 | 74 | 263 | 2.6 | 12.2 | 0.00 | 0.00 | 0.00 | 67 | 1013.4 |
| 20260902223551 | 74 | 306 | 5.2 | 12.2 | 0.00 | 0.00 | 0.00 | 67 | 1013.4 |
| 20260902223121 | 74 | 245 | 5.2 | 10.4 | 0.00 | 0.00 | 0.00 | 66 | 1013.5 |
| 20260902222551 | 74 | 302 | 7.0 | 10.4 | 0.00 | 0.00 | 0.00 | 67 | 1013.7 |
| 20260902222053 | 75 | 198 | 5.2 | 10.4 | 0.00 | 0.00 | 0.00 | 65 | 1013.7 |
| 20260902221558 | 75 | 205 | 5.2 | 9.6 | 0.00 | 0.00 | 0.00 | 65 | 1013.6 |
| 20260902221057 | 75 | 182 | 4.3 | 9.6 | 0.00 | 0.00 | 0.00 | 63 | 1013.7 |
| 20260902220552 | 76 | 231 | 4.3 | 12.2 | 0.00 | 0.00 | 0.00 | 62 | 1013.8 |
| 20260902220109 | 76 | 263 | 4.3 | 12.2 | 0.00 | 0.00 | 0.00 | 62 | 1013.8 |
| 20260902215552 | 76 | 265 | 4.3 | 9.6 | 0.00 | 0.00 | 0.00 | 62 | 1013.8 |
| 20260902215057 | 76 | 144 | 3.5 | 9.6 | 0.00 | 0.00 | 0.00 | 62 | 1013.9 |
| 20260902214608 | 76 | 236 | 3.5 | 11.3 | 0.00 | 0.00 | 0.00 | 62 | 1014.0 |
| 20260902214052 | 76 | 217 | 6.1 | 12.2 | 0.00 | 0.00 | 0.00 | 62 | 1013.9 |
| 20260902213550 | 76 | 200 | 4.3 | 12.2 | 0.00 | 0.00 | 0.00 | 60 | 1013.9 |
| 20260902213100 | 76 | 308 | 5.2 | 10.4 | 0.00 | 0.00 | 0.00 | 59 | 1014.0 |
| 20260902212555 | 76 | 229 | 3.5 | 10.4 | 0.00 | 0.00 | 0.00 | 60 | 1014.0 |
| 20260902212055 | 76 | 198 | 5.2 | 10.4 | 0.00 | 0.00 | 0.00 | 61 | 1014.1 |
| 20260902211602 | 77 | 145 | 2.6 | 9.6 | 0.00 | 0.00 | 0.00 | 61 | 1014.0 |
| 20260902211054 | 76 | 322 | 4.3 | 10.4 | 0.00 | 0.00 | 0.00 | 61 | 1014.1 |
| 20260902210554 | 76 | 182 | 5.2 | 10.4 | 0.00 | 0.00 | 0.00 | 61 | 1014.1 |
| 20260902210121 | 76 | 205 | 3.5 | 10.4 | 0.00 | 0.00 | 0.00 | 61 | 1014.3 |
| 20260902205554 | 76 | 203 | 2.6 | 10.4 | 0.00 | 0.00 | 0.00 | 62 | 1014.5 |
| 20260902205054 | 75 | 207 | 5.2 | 10.4 | 0.00 | 0.00 | 0.00 | 62 | 1014.6 |
| 20260902204640 | 75 | 204 | 4.3 | 9.6 | 0.00 | 0.00 | 0.00 | 62 | 1014.5 |
| 20260902204054 | 75 | 194 | 4.3 | 9.6 | 0.00 | 0.00 | 0.00 | 63 | 1014.6 |
| 20260902203555 | 75 | 180 | 4.3 | 9.6 | 0.00 | 0.00 | 0.00 | 63 | 1014.6 |
| 20260902203102 | 75 | 147 | 5.2 | 9.6 | 0.00 | 0.00 | 0.00 | 63 | 1014.6 |
| 20260902202555 | 75 | 203 | 4.3 | 9.6 | 0.00 | 0.00 | 0.00 | 63 | 1014.8 |
| 20260902202055 | 75 | 241 | 3.5 | 9.6 | 0.00 | 0.00 | 0.00 | 64 | 1014.7 |
| 20260902201615 | 75 | 249 | 4.3 | 9.6 | 0.00 | 0.00 | 0.00 | 64 | 1014.8 |
| 20260902201059 | 75 | 253 | 4.3 | 8.7 | 0.00 | 0.00 | 0.00 | 64 | 1014.9 |
| 20260902200554 | 74 | 191 | 4.3 | 8.7 | 0.00 | 0.00 | 0.00 | 64 | 1014.8 |
| 20260902200105 | 74 | 275 | 4.3 | 9.6 | 0.00 | 0.00 | 0.00 | 66 | 1014.9 |
| 20260902195555 | 74 | 311 | 4.3 | 10.4 | 0.00 | 0.00 | 0.00 | 66 | 1014.8 |
| 20260902195055 | 74 | 296 | 4.3 | 10.4 | 0.00 | 0.00 | 0.00 | 67 | 1014.9 |
| 20260902194606 | 74 | 271 | 6.1 | 10.4 | 0.00 | 0.00 | 0.00 | 67 | 1014.9 |
| 20260902194055 | 74 | 289 | 3.5 | 8.7 | 0.00 | 0.00 | 0.00 | 67 | 1014.8 |
| 20260902193555 | 74 | 195 | 4.3 | 9.6 | 0.00 | 0.00 | 0.00 | 68 | 1015.0 |
| 20260902193102 | 74 | 260 | 5.2 | 9.6 | 0.00 | 0.00 | 0.00 | 68 | 1014.9 |
| 20260902192557 | 74 | 265 | 3.5 | 8.7 | 0.00 | 0.00 | 0.00 | 68 | 1015.0 |
| 20260902192055 | 74 | 296 | 3.5 | 10.4 | 0.00 | 0.00 | 0.00 | 68 | 1014.9 |
| 20260902191555 | 74 | 288 | 5.2 | 10.4 | 0.00 | 0.00 | 0.00 | 68 | 1015.1 |
| 20260902191054 | 74 | 226 | 3.5 | 10.4 | 0.00 | 0.00 | 0.00 | 68 | 1015.1 |
| 20260902190555 | 73 | 158 | 2.6 | 8.7 | 0.00 | 0.00 | 0.00 | 69 | 1015.1 |
| 20260902190058 | 73 | 189 | 3.5 | 9.6 | 0.00 | 0.00 | 0.00 | 70 | 1015.1 |
| 20260902185558 | 73 | 161 | 4.3 | 9.6 | 0.00 | 0.00 | 0.00 | 70 | 1015.1 |
| 20260902185056 | 73 | 215 | 5.2 | 8.7 | 0.00 | 0.00 | 0.00 | 70 | 1015.2 |
| 20260902184557 | 73 | 220 | 2.6 | 10.4 | 0.00 | 0.00 | 0.00 | 70 | 1015.2 |
| 20260902184055 | 73 | 270 | 5.2 | 10.4 | 0.00 | 0.00 | 0.00 | 70 | 1015.3 |
| 20260902183553 | 73 | 267 | 2.6 | 7.8 | 0.00 | 0.00 | 0.00 | 70 | 1015.4 |
| 20260902183113 | 73 | 281 | 1.7 | 8.7 | 0.00 | 0.00 | 0.00 | 71 | 1015.3 |
| 20260902182553 | 73 | 172 | 2.6 | 8.7 | 0.00 | 0.00 | 0.00 | 70 | 1015.3 |
| 20260902182056 | 73 | 213 | 4.3 | 7.8 | 0.00 | 0.00 | 0.00 | 70 | 1015.3 |
| 20260902181612 | 73 | 201 | 1.7 | 7.8 | 0.00 | 0.00 | 0.00 | 70 | 1015.3 |
| 20260902181052 | 73 | 239 | 4.3 | 7.8 | 0.00 | 0.00 | 0.00 | 69 | 1015.3 |
| 20260902180553 | 73 | 100 | 1.7 | 7.0 | 0.00 | 0.00 | 0.00 | 69 | 1015.4 |
| 20260902180057 | 73 | 177 | 2.6 | 7.0 | 0.00 | 0.00 | 0.00 | 69 | 1015.4 |
| 20260902175552 | 73 | 212 | 2.6 | 6.1 | 0.00 | 0.00 | 0.00 | 68 | 1015.4 |
| 20260902175054 | 74 | 200 | 1.7 | 5.2 | 0.00 | 0.00 | 0.00 | 67 | 1015.3 |
| 20260902174608 | 74 | 258 | 0.0 | 4.3 | 0.00 | 0.00 | 0.00 | 65 | 1015.3 |
| 20260902174054 | 74 | 142 | 0.9 | 7.8 | 0.00 | 0.00 | 0.00 | 66 | 1015.3 |
| 20260902173554 | 73 | 161 | 0.9 | 7.8 | 0.00 | 0.00 | 0.00 | 67 | 1015.5 |
| 20260902173117 | 73 | 145 | 1.7 | 6.1 | 0.00 | 0.00 | 0.00 | 68 | 1015.5 |
| 20260902172552 | 72 | 124 | 0.9 | 6.1 | 0.00 | 0.00 | 0.00 | 69 | 1015.6 |
| 20260902172052 | 72 | 225 | 0.9 | 6.1 | 0.00 | 0.00 | 0.00 | 68 | 1015.5 |
| 20260902171558 | 72 | 156 | 2.6 | 6.1 | 0.00 | 0.00 | 0.00 | 69 | 1015.5 |
| 20260902171053 | 73 | 242 | 1.7 | 6.1 | 0.00 | 0.00 | 0.00 | 69 | 1015.5 |
| 20260902170553 | 72 | 107 | 0.0 | 5.2 | 0.00 | 0.00 | 0.00 | 70 | 1015.4 |
| 20260902165553 | 71 | 0 | 1.7 | 5.2 | 0.00 | 0.00 | 0.00 | 71 | 1015.4 |
| 20260902165052 | 71 | 40 | 1.7 | 6.1 | 0.00 | 0.00 | 0.00 | 71 | 1015.4 |
| 20260902164606 | 71 | 122 | 0.9 | 6.1 | 0.00 | 0.00 | 0.00 | 72 | 1015.3 |
| 20260902164055 | 71 | 92 | 0.0 | 7.0 | 0.00 | 0.00 | 0.00 | 72 | 1015.2 |
| 20260902163552 | 71 | 0 | 1.7 | 7.0 | 0.00 | 0.00 | 0.00 | 72 | 1015.3 |